User: anonymous   Login
Location: Unspecified
(0.0000°N, 0.0000°E)
Time: 20:42:55
(UTC+00:00)
Language:

XW-2A - Orbit

View from above orbital plane
View from above orbital plane
View from above satellite
View from above satellite

Ground track
Ground track

The orbit data is extracted from the following two-line orbital elements,

1 40903U 15049E   18262.48290607  .00001708  00000-0  43605-4 0  9998
2 40903  97.3766 298.2520 0015424  54.5585 305.7099 15.40837658168322
Epoch (UTC): 19 September 2018 11:35:23
Eccentricity: 0.0015424
inclination: 97.3766°
perigee height: 433 km
apogee height: 454 km
right ascension of ascending node: 298.2520°
argument of perigee: 54.5585°
revolutions per day: 15.40837658
mean anomaly at epoch: 305.7099°
orbit number at epoch: 16832

The dashed part of the orbit path shows where the satellite is in the earth's shadow,  

DLR